[[{"header":{"parameterUnit":"m.s-1","parameterCategory":1,"la1":30.2991,"la2":30.254,"lo1":-89.0895,"lo2":-89.0444,"dy":0.0017,"dx":0.0017,"nx":28,"ny":28,"refTime":"2024-05-11T09:00:00:Z","depth":0,"parameterNumber":2,"parameterNumberName":"U-component_of_WINDS"},"data":[0,0,0,0,0,0,0,0,0,0,0,0,0,0,0,0,0,0,0,0,0,0,0,0,0,0,0,0,0,0,0,0,0,0,0,0,0,0,0,0,0,0,0,0,0,0,0,0,0,0,0,0,0,0,0,0,0,0,-3.7084,-3.7084,0,-3.7066,-3.7066,-3.7066,-3.6971,-3.6968,-3.6966,-3.6964,-3.6947,-3.6948,-3.695,0,0,0,0,0,0,0,0,0,0,0,0,0,-3.7037,-3.7039,-3.7084,-3.7084,-3.7084,-3.7066,-3.7066,-3.7066,-3.6971,-3.6968,-3.6965,-3.6963,-3.6946,-3.6948,-3.695,0,0,0,0,0,0,0,0,0,0,0,0,0,-3.7043,-3.7039,-3.7084,-3.7034,-3.703,-3.7066,-3.7066,-3.7066,-3.6972,-3.6968,-3.6965,-3.6962,-3.6945,-3.6948,-3.695,-3.7034,0,0,-3.6958,-3.6959,0,0,0,0,0,0,0,0,-3.7042,-3.7044,-3.7042,-3.7038,-3.7033,-3.7017,-3.7043,-3.7055,-3.6972,-3.6994,-3.6964,-3.696,-3.6973,-3.6973,-3.6977,-3.7033,-3.7032,-3.6958,-3.696,-3.6961,-3.6961,0,0,0,0,0,0,0,-3.7042,-3.7045,-3.7077,-3.7042,-3.7036,-3.7013,-3.701,-3.7045,-3.7003,-3.6992,-3.6985,-3.6984,-3.697,-3.6975,-3.6976,-3.7032,-3.6958,-3.696,-3.6962,-3.6963,-3.7157,-3.7161,0,0,0,0,0,0,-3.7049,-3.7045,-3.7078,-3.7076,-3.7029,-3.7017,-3.7013,-3.7026,-3.7002,-3.6995,-3.6987,-3.6979,-3.6972,-3.6973,-3.6975,-3.7073,-3.6961,-3.6963,-3.6964,-3.7154,-3.7158,-3.7162,0,0,0,0,0,0,-3.7048,-3.7052,-3.7078,-3.7059,-3.706,-3.7021,-3.7036,-3.7027,-3.7032,-3.6998,-3.699,-3.7,-3.697,-3.6971,-3.702,-3.7071,-3.6964,-3.6966,-3.7149,-3.7155,-3.716,-3.7268,0,0,0,0,0,0,-3.7047,-3.7053,-3.7084,-3.706,-3.7062,-3.7124,-3.7039,-3.7029,-3.7037,-3.7027,-3.7008,-3.7002,-3.6967,-3.7017,-3.7023,-3.7072,-3.6968,-3.7145,-3.7152,-3.7158,-3.726,-3.7277,-3.7291,0,0,0,0,0,-3.7046,-3.7115,-3.7086,-3.709,-3.71,-3.7127,-3.7128,-3.7086,-3.7041,-3.7072,-3.7051,-3.7003,-3.7064,-3.7023,-3.7028,-3.7079,-3.7141,-3.715,-3.7158,-3.7253,-3.7273,-3.7291,0,0,0,0,0,0,-3.7145,-3.7111,-3.7078,-3.7142,-3.7138,-3.7111,-3.7149,-3.7109,-3.7118,-3.7108,-3.7056,-3.7053,-3.711,-3.7099,-3.7054,-3.716,-3.7094,-3.7104,-3.7165,-3.7184,-3.7199,-3.7202,-3.697,0,0,0,0,0,-3.7175,-3.72,-3.7168,-3.7227,-3.7227,-3.7189,-3.7199,-3.7167,-3.7161,-3.7159,-3.7141,-3.7137,-3.7156,-3.7169,-3.7184,-3.7257,-3.7253,-3.7295,-3.7311,-3.7324,-3.7334,-3.7373,-3.7392,-3.7189,-3.7189,-3.7189,0,0,-3.7236,-3.722,-3.7239,-3.7247,-3.724,-3.7268,-3.7188,-3.722,-3.724,-3.7164,-3.7209,-3.7196,-3.7188,-3.7251,-3.7277,-3.7243,-3.7388,-3.7334,-3.7345,-3.7348,-3.7384,-3.7403,-3.742,-3.7195,-3.7194,-3.7193,0,0,-3.7361,-3.7351,-3.74,-3.7395,-3.7386,-3.736,-3.7372,-3.7351,-3.734,-3.7384,-3.7328,-3.7351,-3.7384,-3.7381,-3.7384,-3.751,-3.7467,-3.7516,-3.7598,-3.7638,-3.7654,-3.7668,-3.7714,-3.7731,-3.7526,-3.7526,-3.7526,0,-3.7439,-3.7477,-3.743,-3.7467,-3.7473,-3.7404,-3.7454,-3.7452,-3.7448,-3.7454,-3.7416,-3.7457,-3.7447,-3.7508,-3.7539,-3.7543,-3.7556,-3.7519,-3.7655,-3.7669,-3.7681,-3.7725,-3.7742,-3.7532,-3.7531,-3.7531,-3.753,0,-3.7574,-3.7602,-3.7642,-3.7641,-3.7651,-3.7694,-3.7654,-3.767,-3.7637,-3.7616,-3.7663,-3.7649,-3.766,-3.7672,-3.764,-3.773,-3.7709,-3.7664,-3.7598,-3.7707,-3.7748,-3.7764,-3.7541,-3.7539,-3.7537,-3.7535,0,0,-3.7763,-3.7735,-3.7751,-3.775,-3.7736,-3.7756,-3.7796,-3.7808,-3.7823,-3.7823,-3.7857,-3.7886,-3.7844,-3.7848,-3.7815,-3.785,-3.7953,-3.78,-3.7799,-3.7831,-3.8052,-3.8088,-3.8108,-3.7923,-3.7926,-3.7928,-3.8053,0,-3.7884,-3.7951,-3.7911,-3.7984,-3.801,-3.7946,-3.7981,-3.7977,-3.7958,-3.7977,-3.7956,-3.7979,-3.7921,-3.7923,-3.7954,-3.7934,-3.7997,-3.7924,-3.7955,-3.7957,-3.7961,-3.8129,-3.8166,-3.8285,-3.8069,-3.8071,-3.8073,0,-3.8036,-3.8043,-3.8119,-3.8101,-3.811,-3.8142,-3.815,-3.8169,-3.8163,-3.8147,-3.8151,-3.811,-3.8149,-3.8083,-3.8136,-3.8088,-3.8098,-3.809,-3.8093,-3.8096,-3.8023,-3.8138,-3.8322,-3.834,-3.8097,-3.8095,-3.8094,0,-3.8169,-3.8197,-3.8247,-3.8248,-3.8227,-3.8251,-3.8244,-3.8234,-3.8244,-3.825,-3.8256,-3.8268,-3.8274,-3.8284,-3.8248,-3.8202,-3.8307,-3.8237,-3.8296,-3.8297,-3.8323,-3.8322,-3.8512,-3.8326,-3.8326,-3.8326,-3.8325,0,-3.831,-3.836,-3.8306,-3.8337,-3.8391,-3.8344,-3.8399,-3.8384,-3.8376,-3.8404,-3.8348,-3.8376,-3.8325,-3.8347,-3.8318,-3.8368,-3.8371,-3.836,-3.8352,-3.8366,-3.8368,-3.8374,-3.8365,-3.833,-3.8329,-3.8328,-3.8328,0,-3.8468,-3.8434,-3.8485,-3.8461,-3.8456,-3.8497,-3.8477,-3.8505,-3.8482,-3.8517,-3.8523,-3.8487,-3.8511,-3.8475,-3.8494,-3.8475,-3.8544,-3.8523,-3.8547,-3.8542,-3.8603,-3.8599,-3.8806,-3.8831,-3.8627,-3.8629,-3.8631,0,-3.8562,-3.8599,-3.8579,-3.8594,-3.8589,-3.8613,-3.8623,-3.8578,-3.859,-3.8586,-3.8616,-3.8634,-3.8647,-3.8687,-3.8663,-3.8678,-3.8658,-3.8729,-3.866,-3.8673,-3.8661,-3.8661,-3.8665,-3.8744,-3.8747,-3.8749,-3.875,0,-3.8733,-3.8714,-3.873,-3.8742,-3.8755,-3.8761,-3.8764,-3.8779,-3.8731,-3.8748,-3.8771,-3.8781,-3.8801,-3.8821,-3.883,-3.8822,-3.878,-3.8772,-3.8787,-3.8803,-3.8816,-3.8812,-3.8588,-3.8768,-3.8766,-3.8765,-3.8764,-3.8763,-3.8863,-3.8893,-3.8885,-3.8905,-3.8902,-3.8906,-3.8931,-3.8912,-3.893,-3.8943,-3.8915,-3.8945,-3.8939,-3.8946,-3.8943,-3.8967,-3.8936,-3.8957,-3.8962,-3.8969,-3.898,-3.8811,-3.8968,-3.8968,-3.8967,-3.8967,-3.8966,0,-3.9032,-3.9024,-3.9043,-3.9048,-3.9065,-3.9022,-3.9022,-3.9039,-3.9067,-3.9064,-3.9078,-3.9105,-3.9124,-3.9102,-3.9117,-3.9141,-3.9121,-3.9146,-3.9145,-3.9145,-3.9006,-3.8992,-3.9162,-3.9162,-3.9162,-3.9162,-3.9162,-3.9162,-3.9123,-3.9173,-3.9153,-3.9201,-3.9192,-3.9222,-3.9226,-3.9229,-3.9227,-3.926,-3.9276,-3.9261,-3.9251,-3.9265,-3.9281,-3.9274,-3.9283,-3.9316,-3.9302,-3.9173,-3.9154,-3.9136,-3.9123,-3.9317,-3.9318,-3.9439,-3.944,-3.9441]},{"header":{"parameterUnit":"m.s-1","parameterCategory":1,"la1":30.2991,"la2":30.254,"lo1":-89.0895,"lo2":-89.0444,"dy":0.0017,"dx":0.0017,"nx":28,"ny":28,"refTime":"2024-05-11T09:00:00:Z","depth":0,"parameterNumber":3,"parameterNumberName":"V-component_of_WINDS"},"data":[0,0,0,0,0,0,0,0,0,0,0,0,0,0,0,0,0,0,0,0,0,0,0,0,0,0,0,0,0,0,0,0,0,0,0,0,0,0,0,0,0,0,0,0,0,0,0,0,0,0,0,0,0,0,0,0,0,0,-4.353,-4.353,0,-4.3539,-4.3539,-4.3539,-4.346,-4.3458,-4.3456,-4.3454,-4.3462,-4.3464,-4.3466,0,0,0,0,0,0,0,0,0,0,0,0,0,-4.3441,-4.3444,-4.353,-4.353,-4.353,-4.3539,-4.3539,-4.3539,-4.3461,-4.3458,-4.3455,-4.3453,-4.3461,-4.3463,-4.3466,0,0,0,0,0,0,0,0,0,0,0,0,0,-4.3468,-4.3444,-4.353,-4.3492,-4.3489,-4.3539,-4.3539,-4.354,-4.3461,-4.3458,-4.3455,-4.3452,-4.346,-4.3463,-4.3467,-4.3553,0,0,-4.3477,-4.3478,0,0,0,0,0,0,0,0,-4.3467,-4.3472,-4.3497,-4.3495,-4.3491,-4.3495,-4.3511,-4.3544,-4.3462,-4.3472,-4.3454,-4.345,-4.3475,-4.3477,-4.3486,-4.3554,-4.3554,-4.3477,-4.3479,-4.3481,-4.3482,0,0,0,0,0,0,0,-4.3465,-4.3471,-4.3533,-4.3498,-4.3494,-4.3474,-4.3474,-4.3517,-4.3492,-4.3471,-4.3465,-4.3467,-4.3473,-4.3483,-4.3486,-4.3554,-4.3477,-4.348,-4.3482,-4.3483,-4.3693,-4.3697,0,0,0,0,0,0,-4.3469,-4.347,-4.3533,-4.3534,-4.3471,-4.3478,-4.3478,-4.3497,-4.3491,-4.3487,-4.347,-4.3463,-4.3479,-4.3482,-4.3486,-4.3587,-4.3481,-4.3484,-4.3486,-4.369,-4.3694,-4.3698,0,0,0,0,0,0,-4.3467,-4.3475,-4.3533,-4.35,-4.3506,-4.3483,-4.3505,-4.3499,-4.3509,-4.3491,-4.3486,-4.3485,-4.3476,-4.3481,-4.3537,-4.3586,-4.3485,-4.3488,-4.3686,-4.3691,-4.3696,-4.3791,0,0,0,0,0,0,-4.3465,-4.3475,-4.3508,-4.3502,-4.3508,-4.3585,-4.3508,-4.3502,-4.3516,-4.3507,-4.3504,-4.35,-4.3474,-4.3533,-4.3541,-4.3589,-4.3491,-4.3681,-4.3688,-4.3694,-4.3784,-4.3799,-4.3812,0,0,0,0,0,-4.3462,-4.3534,-4.3511,-4.3519,-4.3549,-4.3588,-4.3592,-4.3562,-4.352,-4.3553,-4.3541,-4.35,-4.358,-4.3539,-4.3547,-4.3598,-4.3678,-4.3686,-4.3694,-4.3777,-4.3796,-4.3812,0,0,0,0,0,0,-4.3547,-4.3533,-4.3506,-4.3579,-4.3585,-4.3575,-4.3616,-4.3583,-4.3601,-4.3592,-4.3553,-4.3553,-4.3616,-4.3612,-4.3567,-4.3681,-4.3621,-4.3631,-4.3682,-4.37,-4.3714,-4.3714,-4.3494,0,0,0,0,0,-4.3574,-4.3607,-4.3593,-4.3658,-4.3663,-4.3639,-4.3655,-4.3631,-4.3636,-4.3638,-4.363,-4.3636,-4.3662,-4.3681,-4.3704,-4.3782,-4.378,-4.3821,-4.3835,-4.3847,-4.3857,-4.3898,-4.3916,-4.3724,-4.3724,-4.3724,0,0,-4.363,-4.3627,-4.365,-4.3675,-4.3678,-4.3713,-4.3642,-4.3682,-4.3707,-4.3644,-4.3697,-4.3691,-4.3695,-4.3763,-4.3793,-4.3762,-4.3909,-4.3857,-4.3867,-4.387,-4.3908,-4.3927,-4.3943,-4.373,-4.3729,-4.3728,0,0,-4.3751,-4.3752,-4.3807,-4.3811,-4.3815,-4.3799,-4.3812,-4.3807,-4.3801,-4.3853,-4.3807,-4.3836,-4.3882,-4.3887,-4.3895,-4.4018,-4.3981,-4.4027,-4.4102,-4.4143,-4.4158,-4.4172,-4.4216,-4.4232,-4.4036,-4.4036,-4.4036,0,-4.3821,-4.3872,-4.3839,-4.3882,-4.3894,-4.3839,-4.3894,-4.3899,-4.3911,-4.392,-4.3886,-4.3943,-4.3942,-4.401,-4.404,-4.4049,-4.4063,-4.4027,-4.4159,-4.4172,-4.4184,-4.4226,-4.4242,-4.4042,-4.4041,-4.404,-4.404,0,-4.3958,-4.3994,-4.4037,-4.4051,-4.4068,-4.4117,-4.409,-4.4111,-4.4086,-4.4073,-4.4127,-4.4123,-4.4145,-4.4159,-4.4134,-4.4225,-4.4206,-4.4166,-4.4105,-4.4208,-4.4247,-4.4263,-4.4049,-4.4047,-4.4046,-4.4044,0,0,-4.4133,-4.4128,-4.4144,-4.415,-4.4151,-4.4178,-4.4224,-4.4246,-4.4265,-4.4274,-4.4312,-4.4352,-4.4316,-4.4325,-4.43,-4.4336,-4.4434,-4.4292,-4.4291,-4.4319,-4.4534,-4.4565,-4.4584,-4.441,-4.4412,-4.4415,-4.4534,0,-4.4252,-4.4331,-4.4302,-4.4383,-4.4416,-4.4364,-4.4404,-4.4408,-4.4397,-4.4423,-4.441,-4.444,-4.4389,-4.4394,-4.4428,-4.4416,-4.4477,-4.4406,-4.4444,-4.4446,-4.4446,-4.4604,-4.4636,-4.4749,-4.4549,-4.4551,-4.4553,0,-4.4401,-4.4418,-4.4502,-4.4498,-4.451,-4.4547,-4.4565,-4.459,-4.4594,-4.4583,-4.4595,-4.4562,-4.4606,-4.4545,-4.4605,-4.4558,-4.4571,-4.4568,-4.4571,-4.4574,-4.4507,-4.4612,-4.4784,-4.4801,-4.4576,-4.4574,-4.4573,0,-4.4521,-4.4565,-4.4621,-4.4627,-4.4623,-4.465,-4.465,-4.465,-4.4665,-4.468,-4.469,-4.4709,-4.4721,-4.4736,-4.471,-4.4667,-4.4774,-4.471,-4.4767,-4.4767,-4.4792,-4.4791,-4.497,-4.48,-4.4799,-4.4799,-4.4799,0,-4.4657,-4.4711,-4.4675,-4.471,-4.4769,-4.4734,-4.4793,-4.4787,-4.4788,-4.482,-4.4775,-4.4806,-4.4768,-4.4796,-4.4775,-4.4828,-4.4833,-4.4826,-4.482,-4.4831,-4.4832,-4.484,-4.4831,-4.4804,-4.4803,-4.4802,-4.4801,0,-4.4802,-4.478,-4.4838,-4.483,-4.4829,-4.4873,-4.4865,-4.4896,-4.4882,-4.4923,-4.4931,-4.4908,-4.4938,-4.4912,-4.4941,-4.4927,-4.4998,-4.4981,-4.4998,-4.4993,-4.5051,-4.5046,-4.5242,-4.5266,-4.508,-4.5081,-4.5083,0,-4.4891,-4.4932,-4.4927,-4.4946,-4.4949,-4.4979,-4.4994,-4.4961,-4.4979,-4.4986,-4.5017,-4.5043,-4.5062,-4.5112,-4.5098,-4.512,-4.5103,-4.517,-4.5106,-4.5115,-4.5105,-4.5103,-4.5107,-4.5183,-4.5185,-4.5187,-4.5189,0,-4.5051,-4.5038,-4.5062,-4.5083,-4.5103,-4.5117,-4.5127,-4.5145,-4.5111,-4.5133,-4.5164,-4.5179,-4.5208,-4.5235,-4.5252,-4.525,-4.5214,-4.5209,-4.5223,-4.5235,-4.5243,-4.524,-4.5034,-4.5205,-4.5203,-4.5202,-4.5201,-4.52,-4.5171,-4.5205,-4.5207,-4.5236,-4.524,-4.5251,-4.5281,-4.527,-4.5295,-4.5317,-4.5295,-4.5332,-4.5335,-4.5354,-4.5357,-4.5385,-4.5357,-4.5377,-4.5383,-4.5389,-4.5397,-4.5238,-4.5388,-4.5387,-4.5387,-4.5386,-4.5386,0,-4.533,-4.5329,-4.5355,-4.5372,-4.5394,-4.5358,-4.5368,-4.5389,-4.5422,-4.5428,-4.5448,-4.5482,-4.5508,-4.5496,-4.5518,-4.5543,-4.5527,-4.555,-4.5548,-4.5548,-4.5421,-4.5407,-4.5562,-4.5562,-4.5562,-4.5562,-4.5562,-4.5562,-4.5415,-4.547,-4.5458,-4.5515,-4.5512,-4.5549,-4.5558,-4.5567,-4.5572,-4.5613,-4.5634,-4.5626,-4.5624,-4.5646,-4.5668,-4.5663,-4.5674,-4.5703,-4.5693,-4.5574,-4.5557,-4.5541,-4.5527,-4.5705,-4.5706,-4.5818,-4.5819,-4.582]}]]